TimeCDT,TemperatureF,Dew PointF,Humidity,Sea Level PressureIn,VisibilityMPH,Wind Direction,Wind SpeedMPH,Gust SpeedMPH,PrecipitationIn,Events,Conditions,WindDirDegrees,DateUTC
12:11 AM,37.4,33.8,87,29.88,7.0,Calm,Calm,-,N/A,,Overcast,0,2014-03-18 05:11:00
12:56 AM,36.9,34.0,89,29.89,6.0,Calm,Calm,-,N/A,,Overcast,0,2014-03-18 05:56:00
1:56 AM,36.9,34.9,93,29.90,6.0,Calm,Calm,-,N/A,,Overcast,0,2014-03-18 06:56:00
2:56 AM,36.9,34.9,93,29.87,5.0,Calm,Calm,-,N/A,,Overcast,0,2014-03-18 07:56:00
3:56 AM,36.9,34.9,93,29.86,5.0,Calm,Calm,-,N/A,,Overcast,0,2014-03-18 08:56:00
4:56 AM,36.9,34.9,93,29.88,5.0,Calm,Calm,-,N/A,,Overcast,0,2014-03-18 09:56:00
5:56 AM,36.9,36.0,97,29.89,4.0,Calm,Calm,-,N/A,,Overcast,0,2014-03-18 10:56:00
6:30 AM,37.4,37.4,100,29.86,5.0,Calm,Calm,-,N/A,,Overcast,0,2014-03-18 11:30:00
6:56 AM,37.9,36.9,96,29.92,5.0,Calm,Calm,-,N/A,,Overcast,0,2014-03-18 11:56:00
7:43 AM,37.4,37.4,100,29.90,2.5,Calm,Calm,-,N/A,,Overcast,0,2014-03-18 12:43:00
7:56 AM,37.9,37.9,100,29.95,2.5,SW,3.5,-,N/A,,Overcast,220,2014-03-18 12:56:00
8:56 AM,38.8,37.9,97,29.99,2.0,Calm,Calm,-,N/A,,Overcast,0,2014-03-18 13:56:00
9:08 AM,39.2,37.4,93,29.96,1.8,Calm,Calm,-,N/A,,Overcast,0,2014-03-18 14:08:00
9:36 AM,39.2,39.2,100,29.97,2.5,South,5.8,-,N/A,,Overcast,180,2014-03-18 14:36:00
9:43 AM,39.2,39.2,100,29.97,3.0,SSW,5.8,-,N/A,,Overcast,200,2014-03-18 14:43:00
9:56 AM,39.9,38.8,96,30.02,3.0,SW,4.6,-,N/A,,Overcast,230,2014-03-18 14:56:00
10:22 AM,39.2,39.2,100,29.99,2.5,Calm,Calm,-,N/A,,Overcast,0,2014-03-18 15:22:00
10:38 AM,39.2,39.2,100,29.99,3.0,Calm,Calm,-,N/A,,Overcast,0,2014-03-18 15:38:00
10:56 AM,39.9,38.8,96,30.04,2.0,SSW,5.8,-,N/A,,Overcast,210,2014-03-18 15:56:00
11:09 AM,41.0,39.2,93,30.00,1.8,SSW,3.5,-,N/A,,Overcast,200,2014-03-18 16:09:00
11:31 AM,41.0,39.2,93,30.01,2.0,Calm,Calm,-,N/A,,Overcast,0,2014-03-18 16:31:00
11:44 AM,41.0,39.2,93,30.00,3.0,Calm,Calm,-,N/A,,Overcast,0,2014-03-18 16:44:00
11:56 AM,41.9,39.9,93,30.04,4.0,Calm,Calm,-,N/A,,Overcast,0,2014-03-18 16:56:00
12:56 PM,45.9,41.0,83,30.03,10.0,South,6.9,-,N/A,,Overcast,170,2014-03-18 17:56:00
1:14 PM,46.4,41.0,81,29.99,10.0,SSE,6.9,-,N/A,,Overcast,150,2014-03-18 18:14:00
1:43 PM,48.2,41.0,76,29.97,10.0,ESE,6.9,-,N/A,,Overcast,120,2014-03-18 18:43:00
1:56 PM,48.9,41.0,74,30.00,10.0,SSE,9.2,-,N/A,,Overcast,160,2014-03-18 18:56:00
2:56 PM,48.9,41.0,74,29.98,10.0,SE,12.7,-,N/A,,Overcast,130,2014-03-18 19:56:00
3:56 PM,50.0,41.9,74,29.96,10.0,SSE,10.4,-,N/A,,Overcast,160,2014-03-18 20:56:00
4:56 PM,50.9,41.9,71,29.94,10.0,SSE,15.0,-,N/A,,Overcast,160,2014-03-18 21:56:00
5:56 PM,50.0,43.0,77,29.94,10.0,SE,6.9,-,N/A,,Overcast,130,2014-03-18 22:56:00
6:56 PM,48.9,43.9,83,29.95,10.0,SE,8.1,16.1,N/A,,Overcast,140,2014-03-18 23:56:00
7:56 PM,48.9,43.9,83,29.97,10.0,South,10.4,-,N/A,,Overcast,170,2014-03-19 00:56:00
8:56 PM,48.9,43.9,83,30.00,10.0,SSE,10.4,18.4,N/A,,Overcast,160,2014-03-19 01:56:00
9:34 PM,48.2,44.6,87,29.97,10.0,SSE,10.4,-,N/A,,Scattered Clouds,160,2014-03-19 02:34:00
9:56 PM,47.8,43.9,86,29.99,10.0,SSE,15.0,20.7,N/A,,Clear,150,2014-03-19 02:56:00
10:56 PM,46.9,43.9,89,30.02,10.0,South,15.0,20.7,N/A,,Clear,170,2014-03-19 03:56:00
11:56 PM,45.9,43.9,93,30.03,10.0,South,8.1,18.4,N/A,,Clear,170,2014-03-19 04:56:00